H1 CPF 2 NER 2025 12 14 9 348 01 glonass127 H2 1106403 9127 37869 2025 12 14 0 0 0 2025 12 17 23 45 0 900 1 1 0 0 0 1 H9 10 0 61023 0.00000 0 8774380.366 9624618.331 22003381.115 10 0 61023 900.00000 0 6031694.233 9844245.560 22812530.906 10 0 61023 1800.00000 0 3241548.442 10279769.578 23181743.195 10 0 61023 2700.00000 0 473854.247 10926242.287 23103773.223 10 0 61023 3600.00000 0 -2203242.925 11766439.143 22579937.818 10 0 61023 4500.00000 0 -4725936.826 12771510.654 21620104.903 10 0 61023 5400.00000 0 -7037155.846 13902134.230 20242525.839 10 0 61023 6300.00000 0 -9088683.601 15110121.199 18473511.928 10 0 61023 7200.00000 0 -10842918.012 16340415.054 16346958.842 10 0 61023 8100.00000 0 -12274196.234 17533400.533 13903725.292 10 0 61023 9000.00000 0 -13369629.688 18627429.630 11190874.893 10 0 61023 9900.00000 0 -14129413.032 19561460.591 8260793.027 10 0 61023 10800.00000 0 -14566592.206 20277700.070 5170193.295 10 0 61023 11700.00000 0 -14706299.135 20724137.159 1979030.901 10 0 61023 12600.00000 0 -14584483.165 20856861.223 -1250657.051 10 0 61023 13500.00000 0 -14246190.981 20642063.414 -4455962.079 10 0 61023 14400.00000 0 -13743466.610 20057634.181 -7574341.573 10 0 61023 15300.00000 0 -13132960.102 19094285.639 -10544857.274 10 0 61023 16200.00000 0 -12473346.858 17756147.543 -13309388.860 10 0 61023 17100.00000 0 -11822668.522 16060808.154 -15813796.572 10 0 61023 18000.00000 0 -11235710.422 14038795.252 -18009007.507 10 0 61023 18900.00000 0 -10761529.452 11732517.007 -19852001.799 10 0 61023 19800.00000 0 -10441240.023 9194706.060 -21306677.015 10 0 61023 20700.00000 0 -10306154.594 6486431.993 -22344571.935 10 0 61023 21600.00000 0 -10376359.728 3674766.299 -22945434.086 10 0 61023 22500.00000 0 -10659789.479 830198.963 -23097619.170 10 0 61023 23400.00000 0 -11151835.959 -1976083.391 -22798314.323 10 0 61023 24300.00000 0 -11835513.375 -4674942.271 -22053581.296 10 0 61023 25200.00000 0 -12682167.540 -7201938.837 -20878219.645 10 0 61023 26100.00000 0 -13652699.120 -9499780.487 -19295454.053 10 0 61023 27000.00000 0 -14699246.764 -11520460.279 -17336453.661 10 0 61023 27900.00000 0 -15767256.563 -13227000.728 -15039694.848 10 0 61023 28800.00000 0 -16797848.063 -14594730.907 -12450182.047 10 0 61023 29700.00000 0 -17730374.863 -15612046.301 -9618543.987 10 0 61023 30600.00000 0 -18505070.190 -16280623.110 -6600025.011 10 0 61023 31500.00000 0 -19065664.968 -16615082.029 -3453392.933 10 0 61023 32400.00000 0 -19361867.928 -16642119.779 -239786.122 10 0 61023 33300.00000 0 -19351603.959 -16399148.795 2978476.836 10 0 61023 34200.00000 0 -19002917.856 -15932505.626 6139101.362 10 0 61023 35100.00000 0 -18295465.349 -15295305.977 9181011.891 10 0 61023 36000.00000 0 -17221530.898 -14545038.103 12045515.403 10 0 61023 36900.00000 0 -15786531.754 -13740996.201 14677412.389 10 0 61023 37800.00000 0 -14008988.844 -12941660.985 17026035.780 10 0 61023 38700.00000 0 -11919966.849 -12202135.944 19046200.147 10 0 61023 39600.00000 0 -9562007.342 -11571744.748 20699045.542 10 0 61023 40500.00000 0 -6987598.621 -11091887.926 21952762.198 10 0 61023 41400.00000 0 -4257244.293 -10794246.114 22783184.597 10 0 61023 42300.00000 0 -1437208.366 -10699402.980 23174245.341 10 0 61023 43200.00000 0 1402972.903 -10815943.966 23118281.448 10 0 61023 44100.00000 0 4193112.844 -11140068.046 22616187.745 10 0 61023 45000.00000 0 6865024.901 -11655729.186 21677414.134 10 0 61023 45900.00000 0 9355095.459 -12335303.095 20319805.714 10 0 61023 46800.00000 0 11606675.097 -13140753.681 18569286.932 10 0 61023 47700.00000 0 13572190.946 -14025253.259 16459393.452 10 0 61023 48600.00000 0 15214893.346 -14935191.717 14030657.857 10 0 61023 49500.00000 0 16510164.001 -15812493.320 11329858.052 10 0 61023 50400.00000 0 17446330.008 -16597146.204 8409140.002 10 0 61023 51300.00000 0 18024947.987 -17229839.722 5325029.266 10 0 61023 52200.00000 0 18260544.186 -17654599.030 2137348.531 10 0 61023 53100.00000 0 18179819.142 -17821305.085 -1091938.984 10 0 61023 54000.00000 0 17820348.251 -17687991.840 -4299938.114 10 0 61023 54900.00000 0 17228831.504 -17222820.741 -7424058.301 10 0 61023 55800.00000 0 16458965.459 -16405645.551 -10403252.672 10 0 61023 56700.00000 0 15569027.543 -15229097.500 -13179233.537 10 0 61023 57600.00000 0 14619275.872 -13699140.995 -15697638.212 10 0 61023 58500.00000 0 13669276.490 -11835072.995 -17909119.725 10 0 61023 59400.00000 0 12775273.526 -9668963.245 -19770338.523 10 0 61023 60300.00000 0 11987716.288 -7244557.036 -21244833.397 10 0 61023 61200.00000 0 11349050.588 -4615685.744 -22303752.585 10 0 61023 62100.00000 0 10891870.016 -1844251.902 -22926429.344 10 0 61023 63000.00000 0 10637507.020 1002125.831 -23100789.843 10 0 61023 63900.00000 0 10595124.219 3852707.757 -22823585.203 10 0 61023 64800.00000 0 10761344.266 6636358.021 -22100443.527 10 0 61023 65700.00000 0 11120432.992 9284283.771 -20945741.832 10 0 61023 66600.00000 0 11645026.296 11732672.857 -19382301.800 10 0 61023 67500.00000 0 12297367.750 13925119.308 -17440917.066 10 0 61023 68400.00000 0 13031001.898 15814735.495 -15159723.283 10 0 61023 69300.00000 0 13792848.895 17365863.866 -12583425.453 10 0 61023 70200.00000 0 14525570.233 18555318.846 -9762399.770 10 0 61023 71100.00000 0 15170123.470 19373109.911 -6751689.530 10 0 61023 72000.00000 0 15668396.518 19822619.136 -3609916.522 10 0 61023 72900.00000 0 15965809.593 19920229.787 -398130.527 10 0 61023 73800.00000 0 16013775.103 19694425.435 2821379.722 10 0 61023 74700.00000 0 15771912.668 19184401.141 5986290.605 10 0 61023 75600.00000 0 15209927.527 18438247.988 9035439.579 10 0 61023 76500.00000 0 14309075.199 17510789.247 11909990.699 10 0 61023 77400.00000 0 13063152.945 16461160.077 14554548.581 10 0 61023 78300.00000 0 11478978.259 15350232.203 16918201.227 10 0 61023 79200.00000 0 9576335.793 14237990.534 18955473.993 10 0 61023 80100.00000 0 7387395.553 13180969.711 20627178.839 10 0 61023 81000.00000 0 4955626.422 12229855.449 21901145.138 10 0 61023 81900.00000 0 2334248.973 11427348.292 22752820.335 10 0 61023 82800.00000 0 -415710.344 10806376.492 23165730.848 10 0 61023 83700.00000 0 -3227685.837 10388730.628 23131795.718 10 0 61023 84600.00000 0 -6032069.576 10184175.657 22651487.584 10 0 61023 85500.00000 0 -8758839.010 10190077.091 21733837.684 10 0 61024 0.00000 0 -11340209.738 10391557.501 20396283.835 10 0 61024 900.00000 0 -13713207.980 10762178.478 18664361.760 10 0 61024 1800.00000 0 -15822054.983 11265121.493 16571245.110 10 0 61024 2700.00000 0 -17620270.351 11854821.266 14157137.846 10 0 61024 3600.00000 0 -19072403.651 12478985.713 11468529.357 10 0 61024 4500.00000 0 -20155322.834 13080920.244 8557323.184 10 0 61024 5400.00000 0 -20859003.826 13602060.446 5479853.737 10 0 61024 6300.00000 0 -21186786.049 13984607.445 2295808.059 10 0 61024 7200.00000 0 -21155080.598 14174154.584 -932927.594 10 0 61024 8100.00000 0 -20792540.877 14122193.164 -4143474.362 10 0 61024 9000.00000 0 -20138728.535 13788388.997 -7273196.600 10 0 61024 9900.00000 0 -19242329.516 13142530.220 -10260941.521 10 0 61024 10800.00000 0 -18158995.031 12166060.255 -13048256.565 10 0 61024 11700.00000 0 -16948898.994 10853127.100 -15580558.361 10 0 61024 12600.00000 0 -15674116.473 9211100.835 -17808227.794 10 0 61024 13500.00000 0 -14395935.919 7260534.206 -19687607.184 10 0 61024 14400.00000 0 -13172221.205 5034565.419 -21181877.693 10 0 61024 15300.00000 0 -12054937.501 2577786.737 -22261797.767 10 0 61024 16200.00000 0 -11087947.830 -55374.183 -22906286.695 10 0 61024 17100.00000 0 -10305175.193 -2802691.974 -23102841.017 10 0 61024 18000.00000 0 -9729208.937 -5596513.772 -22847775.325 10 0 61024 18900.00000 0 -9370414.362 -8366361.232 -22146283.177 10 0 61024 19800.00000 0 -9226582.359 -11041653.822 -21012317.782 10 0 61024 20700.00000 0 -9283132.212 -13554437.997 -19468296.219 10 0 61024 21600.00000 0 -9513856.579 -15842007.124 -17544634.714 10 0 61024 22500.00000 0 -9882174.260 -17849302.334 -15279126.063 10 0 61024 23400.00000 0 -10342834.682 -19530994.373 -12716173.544 10 0 61024 24300.00000 0 -10843998.976 -20853160.854 -9905898.429 10 0 61024 25200.00000 0 -11329606.939 -21794491.039 -6903140.551 10 0 61024 26100.00000 0 -11741927.710 -22346970.771 -3766373.277 10 0 61024 27000.00000 0 -12024184.921 -22516022.406 -556555.452 10 0 61024 27900.00000 0 -12123144.962 -22320097.752 2664056.352 10 0 61024 28800.00000 0 -11991559.385 -21789744.741 5833111.761 10 0 61024 29700.00000 0 -11590359.496 -20966190.188 8889363.491 10 0 61024 30600.00000 0 -10890512.394 -19899500.703 11773834.881 10 0 61024 31500.00000 0 -9874462.261 -18646400.256 14430936.825 10 0 61024 32400.00000 0 -8537098.252 -17267836.335 16809514.456 10 0 61024 33300.00000 0 -6886210.112 -15826396.110 18863805.791 10 0 61024 34200.00000 0 -4942413.404 -14383679.069 20554296.392 10 0 61024 35100.00000 0 -2738547.690 -12997733.722 21848456.199 10 0 61024 36000.00000 0 -318571.913 -11720662.585 22721346.745 10 0 61024 36900.00000 0 2263998.837 -10596492.648 23156089.061 10 0 61024 37800.00000 0 4948052.861 -9659397.520 23144184.674 10 0 61024 38700.00000 0 7667159.743 -8932343.411 22685684.175 10 0 61024 39600.00000 0 10352075.835 -8426214.237 21789199.928 10 0 61024 40500.00000 0 12933377.223 -8139452.104 20471761.691 10 0 61024 41400.00000 0 15344114.465 -8058228.908 18758516.099 10 0 61024 42300.00000 0 17522381.704 -8157143.493 16682273.424 10 0 61024 43200.00000 0 19413695.336 -8400417.374 14282907.484 10 0 61024 44100.00000 0 20973084.105 -8743541.472 11606617.268 10 0 61024 45000.00000 0 22166803.189 -9135307.200 8705061.619 10 0 61024 45900.00000 0 22973599.432 -9520138.540 5634381.148 10 0 61024 46800.00000 0 23385472.648 -9840628.258 2454124.280 10 0 61024 47700.00000 0 23407898.450 -10040171.568 -773902.933 10 0 61024 48600.00000 0 23059500.485 -10065585.293 -3986841.320 10 0 61024 49500.00000 0 22371183.261 -9869599.953 -7122013.552 10 0 61024 50400.00000 0 21384760.081 -9413116.513 -10118164.232 10 0 61024 51300.00000 0 20151132.689 -8667128.832 -12916679.018 10 0 61024 52200.00000 0 18728099.095 -7614226.522 -15462756.647 10 0 61024 53100.00000 0 17177882.760 -6249610.760 -17706508.314 10 0 61024 54000.00000 0 15564488.880 -4581576.507 -19603960.294 10 0 61024 54900.00000 0 13951001.400 -2631437.766 -21117937.813 10 0 61024 55800.00000 0 12396937.197 -432896.907 -22218810.800 10 0 61024 56700.00000 0 10955771.368 1969116.589 -22885085.444 10 0 61024 57600.00000 0 9672739.921 4520089.443 -23103829.073 10 0 61024 58500.00000 0 8583013.856 7157980.314 -22870919.745 10 0 61024 59400.00000 0 7710322.030 9815600.568 -22191116.023 10 0 61024 60300.00000 0 7066080.348 12423218.758 -21077946.442 10 0 61024 61200.00000 0 6649062.516 14911278.116 -19553422.212 10 0 61024 62100.00000 0 6445623.905 17213111.965 -17647580.514 10 0 61024 63000.00000 0 6430466.059 19267542.575 -15397869.303 10 0 61024 63900.00000 0 6567906.193 21021254.566 -12848387.823 10 0 61024 64800.00000 0 6813594.537 22430844.260 -10048999.816 10 0 61024 65700.00000 0 7116603.679 23464460.811 -7054338.802 10 0 61024 66600.00000 0 7421798.791 24102972.790 -3922726.669 10 0 61024 67500.00000 0 7672386.465 24340614.445 -715028.144 10 0 61024 68400.00000 0 7812533.199 24185088.016 2506535.601 10 0 61024 69300.00000 0 7789942.600 23657121.342 5679590.598 10 0 61024 70200.00000 0 7558283.100 22789502.730 8742807.852 10 0 61024 71100.00000 0 7079365.056 21625636.221 11637072.800 10 0 61024 72000.00000 0 6324977.292 20217679.630 14306605.145 10 0 61024 72900.00000 0 5278307.836 18624344.388 16700009.413 10 0 61024 73800.00000 0 3934890.938 16908448.869 18771238.253 10 0 61024 74700.00000 0 2303042.073 15134326.406 20480452.471 10 0 61024 75600.00000 0 403763.465 13365194.209 21794763.894 10 0 61024 76500.00000 0 -1729876.302 11660590.106 22688849.144 10 0 61024 77400.00000 0 -4053863.960 10073981.010 23145424.507 10 0 61024 78300.00000 0 -6514820.075 8650639.797 23155574.243 10 0 61024 79200.00000 0 -9051971.857 7425876.408 22718926.705 10 0 61024 80100.00000 0 -11599441.903 6423694.988 21843674.735 10 0 61024 81000.00000 0 -14088761.707 5655931.975 20546439.004 10 0 61024 81900.00000 0 -16451509.280 5121910.998 18851975.151 10 0 61024 82800.00000 0 -18621964.483 4808629.898 16792728.004 10 0 61024 83700.00000 0 -20539674.069 4691473.678 14408238.643 10 0 61024 84600.00000 0 -22151821.014 4735425.697 11744412.693 10 0 61024 85500.00000 0 -23415299.507 4896728.644 8852661.081 10 0 61025 0.00000 0 -24298407.957 5124927.663 5788927.529 10 0 61025 900.00000 0 -24782087.686 5365211.345 2612617.874 10 0 61025 1800.00000 0 -24860651.648 5560952.394 -614545.140 10 0 61025 2700.00000 0 -24541971.154 5656340.903 -3829725.302 10 0 61025 3600.00000 0 -23847108.498 5598997.329 -6970206.722 10 0 61025 4500.00000 0 -22809408.859 5342452.441 -9974634.322 10 0 61025 5400.00000 0 -21473087.684 4848386.134 -12784234.676 10 0 61025 6300.00000 0 -19891372.055 4088526.624 -15343991.048 10 0 61025 7200.00000 0 -18124274.300 3046125.795 -17603746.999 10 0 61025 8100.00000 0 -16236092.564 1716944.495 -19519214.397 10 0 61025 9000.00000 0 -14292745.268 109702.866 -21052863.680 10 0 61025 9900.00000 0 -12359053.873 -1754025.903 -22174676.879 10 0 61025 10800.00000 0 -10496090.629 -3840475.617 -22862747.155 10 0 61025 11700.00000 0 -8758705.013 -6104873.890 -23103712.162 10 0 61025 12600.00000 0 -7193334.541 -8493105.661 -22893012.461 10 0 61025 13500.00000 0 -5836192.863 -10943782.662 -22234970.210 10 0 61025 14400.00000 0 -4711911.212 -13390630.564 -21142687.472 10 0 61025 15300.00000 0 -3832689.283 -15765092.014 -19637767.474 10 0 61025 16200.00000 0 -3197989.146 -17999034.849 -17749865.988 10 0 61025 17100.00000 0 -2794782.188 -20027450.743 -15516083.595 10 0 61025 18000.00000 0 -2598335.184 -21791030.492 -12980212.886 10 0 61025 18900.00000 0 -2573498.541 -23238508.109 -10191857.445 10 0 61025 19800.00000 0 -2676438.599 -24328676.434 -7205441.890 10 0 61025 20700.00000 0 -2856737.421 -25031991.471 -4079134.154 10 0 61025 21600.00000 0 -3059768.583 -25331700.737 -873702.489 10 0 61025 22500.00000 0 -3229246.609 -25224451.295 2348669.535 10 0 61025 23400.00000 0 -3309841.335 -24720355.260 5525586.452 10 0 61025 24300.00000 0 -3249746.747 -23842513.328 8595639.536 10 0 61025 25200.00000 0 -3003096.719 -22626019.103 11499578.192 10 0 61025 26100.00000 0 -2532127.304 -21116488.152 14181432.718 10 0 61025 27000.00000 0 -1808996.438 -19368174.562 16589568.680 10 0 61025 27900.00000 0 -817186.500 -17441753.951 18677654.834 10 0 61025 28800.00000 0 447567.367 -15401864.895 20405528.542 10 0 61025 29700.00000 0 1976860.954 -13314509.393 21739944.597 10 0 61025 30600.00000 0 3749733.778 -11244418.221 22655195.522 10 0 61025 31500.00000 0 5733306.895 -9252487.824 23133593.403 10 0 61025 32400.00000 0 7883920.832 -7393392.146 23165805.513 10 0 61025 33300.00000 0 10148728.883 -5713465.735 22751037.965 10 0 61025 34200.00000 0 12467682.728 -4248943.718 21897063.821 10 0 61025 35100.00000 0 14775831.603 -3024630.104 20620094.146 10 0 61025 36000.00000 0 17005843.220 -2053049.090 18944492.817 10 0 61025 36900.00000 0 19090645.029 -1334114.936 16902338.191 10 0 61025 37800.00000 0 20966078.739 -855335.198 14532837.283 10 0 61025 38700.00000 0 22573459.319 -592540.585 11881600.733 10 0 61025 39600.00000 0 23861932.416 -511112.966 8999789.597 10 0 61025 40500.00000 0 24790531.204 -567662.141 5943147.853 10 0 61025 41400.00000 0 25329845.002 -712082.705 2770937.232 10 0 61025 42300.00000 0 25463227.190 -889905.549 -455206.270 10 0 61025 43200.00000 0 25187488.665 -1044845.084 -3672472.493 10 0 61025 44100.00000 0 24513044.383 -1121433.863 -6818110.172 10 0 61025 45000.00000 0 23463503.680 -1067631.427 -9830667.697 10 0 61025 45900.00000 0 22074719.025 -837294.298 -12651215.565 10 0 61025 46800.00000 0 20393331.441 -392399.233 -15224524.327 10 0 61025 47700.00000 0 18474873.024 295078.130 -17500172.380 10 0 61025 48600.00000 0 16381506.590 1241712.495 -19433559.327 10 0 61025 49500.00000 0 14179498.609 2451670.839 -20986802.621 10 0 61025 50400.00000 0 11936533.493 3916290.416 -22129497.864 10 0 61025 51300.00000 0 9718984.208 5614212.756 -22839326.303 10 0 61025 52200.00000 0 7589256.036 7512069.180 -23102496.676 10 0 61025 53100.00000 0 5603316.881 9565689.204 -22914012.404 10 0 61025 54000.00000 0 3808518.995 11721780.411 -22277759.189 10 0 61025 54900.00000 0 2241803.896 13920007.925 -21206412.135 10 0 61025 55800.00000 0 928365.222 16095384.478 -19721165.555 10 0 61025 56700.00000 0 -119176.034 18180868.932 -17851292.448 10 0 61025 57600.00000 0 -901051.851 20110062.594 -15633544.249 10 0 61025 58500.00000 0 -1430074.678 21819888.964 -13111404.733 10 0 61025 59400.00000 0 -1730827.422 23253143.924 -10334214.821 10 0 61025 60300.00000 0 -1838354.139 24360809.606 -7356187.447 10 0 61025 61200.00000 0 -1796410.501 25104035.889 -4235333.568 10 0 61025 62100.00000 0 -1655351.288 25455708.245 -1032321.788 10 0 61025 63000.00000 0 -1469746.749 25401538.575 2190705.163 10 0 61025 63900.00000 0 -1295830.236 24940636.266 5371333.536 10 0 61025 64800.00000 0 -1188885.605 24085538.551 8448078.006 10 0 61025 65700.00000 0 -1200684.344 22861701.673 11361554.911 10 0 61025 66600.00000 0 -1377079.422 21306476.611 14055607.889 10 0 61025 67500.00000 0 -1755855.476 19467613.629 16478366.020 10 0 61025 68400.00000 0 -2364923.769 17401358.871 18583216.378 10 0 61025 69300.00000 0 -3220935.746 15170222.001 20329674.776 10 0 61025 70200.00000 0 -4328371.701 12840506.527 21684140.573 10 0 61025 71100.00000 0 -5679141.756 10479703.300 22620523.472 10 0 61025 72000.00000 0 -7252715.816 8153852.596 23120732.290 10 0 61025 72900.00000 0 -9016778.025 5924981.128 23175017.841 10 0 61025 73800.00000 0 -10928380.409 3848717.149 22782164.099 10 0 61025 74700.00000 0 -12935550.448 1972179.770 21949523.957 10 0 61025 75600.00000 0 -14979289.094 332227.868 20692897.979 10 0 61025 76500.00000 0 -16995879.755 -1045860.090 19036256.842 10 0 61025 77400.00000 0 -18919415.708 -2149220.804 17011310.465 10 0 61025 78300.00000 0 -20684443.723 -2977720.282 14656929.344 10 0 61025 79200.00000 0 -22228615.989 -3543732.944 12018426.241 10 0 61025 80100.00000 0 -23495240.790 -3871393.114 9146709.103 10 0 61025 81000.00000 0 -24435625.324 -3995348.169 6097318.962 10 0 61025 81900.00000 0 -25011111.391 -3959063.748 2929369.266 10 0 61025 82800.00000 0 -25194716.359 -3812750.791 -295594.127 10 0 61025 83700.00000 0 -24972307.475 -3611000.981 -3514790.737 10 0 61025 84600.00000 0 -24343256.702 -3410230.588 -6665437.439 10 0 61025 85500.00000 0 -23320545.006 -3266041.866 -9685989.440 10 0 61026 0.00000 0 -21930308.640 -3230615.767 -12517364.039 10 0 61026 900.00000 0 -20210843.200 -3350249.225 -15104122.421 10 0 61026 1800.00000 0 -18211107.671 -3663144.736 -17395580.021 10 0 61026 2700.00000 0 -15988788.307 -4197549.354 -19346826.170 10 0 61026 3600.00000 0 -13608005.901 -4970325.439 -20919626.785 10 0 61026 4500.00000 0 -11136763.328 -5986016.627 -22083191.860 10 0 61026 5400.00000 0 -8644242.411 -7236450.847 -22814790.893 10 0 61026 6300.00000 0 -6198065.560 -8700898.658 -23100203.211 10 0 61026 7200.00000 0 -3861639.012 -10346780.812 -22933993.988 10 0 61026 8100.00000 0 -1691690.502 -12130894.901 -22319610.813 10 0 61026 9000.00000 0 263894.624 -14001108.402 -21269299.723 10 0 61026 9900.00000 0 1967848.274 -15898445.248 -19803843.645 10 0 61026 10800.00000 0 3394832.193 -17759476.242 -17952130.066 10 0 61026 11700.00000 0 4532235.380 -19518910.972 -15750558.356 10 0 61026 12600.00000 0 5380425.891 -21112280.577 -13242300.452 10 0 61026 13500.00000 0 5952450.184 -22478597.547 -10476431.573 10 0 61026 14400.00000 0 6273196.780 -23562880.343 -7506949.951 10 0 61026 15300.00000 0 6378063.619 -24318437.151 -4391706.660 10 0 61026 16200.00000 0 6311189.117 -24708813.970 -1191267.897 10 0 61026 17100.00000 0 6123324.851 -24709327.173 2032267.037 10 0 61026 18000.00000 0 5869442.012 -24308118.600 5216468.510 10 0 61026 18900.00000 0 5606174.036 -23506691.617 8299776.747 10 0 61026 19800.00000 0 5389203.715 -22319908.532 11222676.947 10 0 61026 20700.00000 0 5270704.257 -20775451.728 13928827.771 10 0 61026 21600.00000 0 5296940.722 -18912772.785 16366123.242 10 0 61026 22500.00000 0 5506130.789 -16781574.585 18487669.906 10 0 61026 23400.00000 0 5926652.614 -14439889.581 20252662.911 10 0 61026 24300.00000 0 6575672.937 -11951833.265 21627146.774 10 0 61026 25200.00000 0 7458251.386 -9385124.254 22584648.675 10 0 61026 26100.00000 0 8566957.703 -6808471.243 23106674.178 10 0 61026 27000.00000 0 9882018.040 -4288932.012 23183057.384 10 0 61026 27900.00000 0 11371985.463 -1889350.611 22812159.644 10 0 61026 28800.00000 0 12994908.825 334024.224 22000912.981 10 0 61026 29700.00000 0 14699954.230 2333643.411 20764706.569 10 0 61026 30600.00000 0 16429414.963 4072399.281 19127116.824 10 0 61026 31500.00000 0 18121029.591 5524933.423 17119483.993 10 0 61026 32400.00000 0 19710514.872 6678456.321 14780340.645 10 0 61026 33300.00000 0 21134210.373 7533043.811 12154700.047 10 0 61026 34200.00000 0 22331725.943 8101396.411 9293215.203 10 0 61026 35100.00000 0 23248481.856 8408069.664 6251222.120 10 0 61026 36000.00000 0 23838034.467 8488205.682 3087683.654 10 0 61026 36900.00000 0 24064088.010 8385817.368 -135947.006 10 0 61026 37800.00000 0 23902105.193 8151696.329 -3356921.744 10 0 61026 38700.00000 0 23340445.427 7841032.256 -6512428.334 10 0 61026 39600.00000 0 22380979.032 7510844.865 -9540831.554 10 0 61026 40500.00000 0 21039147.911 7217338.467 -12382898.632 10 0 61026 41400.00000 0 19343466.969 7013293.463 -14982982.818 10 0 61026 42300.00000 0 17334484.863 6945608.198 -17290139.322 10 0 61026 43200.00000 0 15063246.364 7053098.625 -19259149.165 10 0 61026 44100.00000 0 12589320.562 7364652.293 -20851428.418 10 0 61026 45000.00000 0 9978478.273 7897817.900 -22035802.902 10 0 61026 45900.00000 0 7300117.444 8657892.557 -22789131.543 10 0 61026 46800.00000 0 4624546.244 9637547.083 -23096765.146 10 0 61026 47700.00000 0 2020239.673 10817005.996 -22952831.212 10 0 61026 48600.00000 0 -448813.760 12164774.516 -22360339.419 10 0 61026 49500.00000 0 -2725563.015 13638881.024 -21331106.519 10 0 61026 50400.00000 0 -4762040.137 15188581.051 -19885503.390 10 0 61026 51300.00000 0 -6521111.263 16756448.994 -18052030.895 10 0 61026 52200.00000 0 -7977761.234 18280767.366 -15866734.778 10 0 61026 53100.00000 0 -9119860.539 19698110.931 -13372473.196 10 0 61026 54000.00000 0 -9948385.763 20946015.319 -10618053.373 10 0 61026 54900.00000 0 -10477088.280 21965616.784 -7657256.290 10 0 61026 55800.00000 0 -10731629.296 22704151.724 -4547770.376 10 0 61026 56700.00000 0 -10748221.813 23117211.325 -1350056.521 10 0 61026 57600.00000 0 -10571840.448 23170657.807 1873832.383 10 0 61026 58500.00000 0 -10254077.525 22842123.634 5061453.790 10 0 61026 59400.00000 0 -9850737.973 22122033.140 8151176.438 10 0 61026 60300.00000 0 -9419275.382 21014106.201 11083357.247 10 0 61026 61200.00000 0 -9016177.210 19535325.163 13801472.610 10 0 61026 62100.00000 0 -8694408.278 17715368.416 16253184.070 10 0 61026 63000.00000 0 -8501018.282 15595535.313 18391320.028 10 0 61026 63900.00000 0 -8475011.747 13227207.628 20174757.108 10 0 61026 64800.00000 0 -8645567.480 10669911.106 21569186.871 10 0 61026 65700.00000 0 -9030680.113 7989055.780 22547755.575 10 0 61026 66600.00000 0 -9636279.112 5253446.481 23091566.799 10 0 61026 67500.00000 0 -10455861.482 2532663.607 23190038.845 10 0 61026 68400.00000 0 -11470653.867 -105580.799 22841110.924 10 0 61026 69300.00000 0 -12650298.653 -2598005.554 22051294.222 10 0 61026 70200.00000 0 -13954037.695 -4888138.378 20835566.057 10 0 61026 71100.00000 0 -15332347.281 -6928413.382 19217107.592 10 0 61026 72000.00000 0 -16728959.383 -8681902.533 17226887.891 10 0 61026 72900.00000 0 -18083188.091 -10123609.786 14903099.569 10 0 61026 73800.00000 0 -19332466.934 -11241273.666 12290453.913 10 0 61026 74700.00000 0 -20414993.000 -12035643.615 9439346.093 10 0 61026 75600.00000 0 -21272368.237 -12520216.715 6404903.886 10 0 61026 76500.00000 0 -21852127.029 -12720443.723 3245936.105 10 0 61026 77400.00000 0 -22110042.579 -12672435.631 23799.669 10 0 61026 78300.00000 0 -22012112.721 -12421223.479 -3198793.350 10 0 61026 79200.00000 0 -21536138.325 -12018643.737 -6359005.316 10 0 61026 80100.00000 0 -20672824.003 -11520938.360 -9395114.203 10 0 61026 81000.00000 0 -19426350.876 -10986171.754 -12247740.422 10 0 61026 81900.00000 0 -17814393.539 -10471575.649 -14861033.088 10 0 61026 82800.00000 0 -15867577.491 -10030936.732 -17183789.901 10 0 61026 83700.00000 0 -13628397.640 -9712140.632 -19170486.116 10 0 61026 84600.00000 0 -11149642.137 -9554979.381 -20782189.985 10 0 61026 85500.00000 0 -8492387.587 -9589318.217 -21987344.546 99